This is the latest recevied weather packets stored in our database for station/object N5PA. If no packets are shown the sender has not sent any weather packets the latest 10 day(s).
| Time | Temp. | Humidity | Pressure | Rain* | Wind** | Luminosity | Snow |
|---|---|---|---|---|---|---|---|
| 1778114107 | 24.44° C | 27% | 1010.1 hPa | 7.11 mm | - | 991 W/m² | - |
| 1778113806 | 24.44° C | 28% | 1010.5 hPa | 7.11 mm | - | 986 W/m² | - |
| 1778113506 | 24.44° C | 29% | 1010.5 hPa | 8.13 mm | - | 991 W/m² | - |
| 1778113205 | 24.44° C | 30% | 1010 hPa | 9.14 mm | - | 991 W/m² | - |
| 1778112905 | 24.44° C | 32% | 1009.8 hPa | 9.65 mm | - | 988 W/m² | - |
| 1778112606 | 24.44° C | 32% | 1009.6 hPa | 10.16 mm | - | 993 W/m² | - |
| 1778112307 | 24.44° C | 33% | 1009.8 hPa | 10.67 mm | - | 993 W/m² | - |
| 1778112006 | 24.44° C | 35% | 1009.5 hPa | 10.67 mm | - | 990 W/m² | - |
| 1778111706 | 25° C | 36% | 1009.9 hPa | 10.67 mm | - | 993 W/m² | - |
| 1778111404 | 25° C | 38% | 1009.5 hPa | 10.67 mm | - | 993 W/m² | - |
| 1778111106 | 25° C | 39% | 1009.7 hPa | 10.67 mm | - | 993 W/m² | - |
| 1778110805 | 25° C | 42% | 1010.3 hPa | 7.37 mm | - | 993 W/m² | - |
| 1778110505 | 25° C | 45% | 1010.3 hPa | 4.32 mm | - | 993 W/m² | - |
| 1778110204 | 25° C | 47% | 1010.3 hPa | 3.56 mm | - | 990 W/m² | - |
| 1778109904 | 25.56° C | 50% | 1009.7 hPa | 2.54 mm | - | 993 W/m² | - |
| 1778109605 | 25.56° C | 53% | 1009.8 hPa | 1.52 mm | - | 991 W/m² | - |
| 1778109305 | 25.56° C | 56% | 1010.2 hPa | 1.02 mm | - | 993 W/m² | - |
| 1778109004 | 25.56° C | 58% | 1010.1 hPa | 0.25 mm | - | 993 W/m² | - |
| 1778108706 | 25.56° C | 60% | 1010.2 hPa | 0 mm | - | 993 W/m² | - |
| 1778108406 | 25.56° C | 60% | 1010.5 hPa | 0 mm | - | 990 W/m² | - |
| 1778108104 | 25.56° C | 62% | 1009.8 hPa | 0 mm | - | 993 W/m² | - |
| 1778107806 | 26.11° C | 63% | 1010 hPa | 0 mm | - | 988 W/m² | - |
| 1778107506 | 26.11° C | 64% | 1009.7 hPa | 0 mm | - | 990 W/m² | - |
| 1778107206 | 26.11° C | 65% | 1010.1 hPa | 0 mm | - | 990 W/m² | - |
| 1778106905 | 26.11° C | 66% | 1010.2 hPa | 0 mm | - | 993 W/m² | - |
* Rain latest hour (hover to see other rain measurements)
** Current wind speed in m/s (hover to see current wind gust speed)